Regional Weather Roundup
Issued by NWS

Home | Current Version | Previous Version | Graphics & Text | Print | Product List | Glossary On
Versions: 1 2 3 4 5 6 7 8 9 10 11 12 13 14 15 16 17 18 19 20 21 22 23 24 25 26 27
000
ASUS45 KTFX 220410
RWRMT
MONTANA REGIONAL WEATHER ROUNDUP
NATIONAL WEATHER SERVICE GREAT FALLS MT
900 PM MST SAT JAN 21 2017

NOTE: "FAIR" INDICATES FEW OR NO CLOUDS BELOW 12000 FEET WITH NO
SIGNIFICANT WEATHER AND/OR OBSTRUCTIONS TO VISIBILITY.

MTZ001>007-043-220500-
WEST OF THE DIVIDE

CITY           SKY/WX    TMP DP  RH WIND       PRES   REMARKS
KALISPELL      LGT SNOW  25  24  96 CALM      29.73R
MISSOULA       CLOUDY    23  21  92 E5        29.74R
BUTTE          CLOUDY    14   9  80 S7        29.68R WCI   4
MULLAN PASS    CLOUDY    26  23  88 S7        29.61R FOG     WCI  18
ANACONDA         N/A     19  14  79 W5        29.69R
DEER LODGE       N/A     18  16  93 CALM      29.72R
EUREKA           N/A     27  25  93 CALM      29.74R
HAMILTON         N/A     25  21  86 CALM        N/A
PLAINS           N/A     25  21  84 CALM      29.75R
RONAN            N/A     24  21  88 CALM      29.77R
THOMPSON FALLS   N/A     29  26  88 E10       29.77R WCI  20
$$

MTZ008-052>055-220500-
SOUTHWEST MONTANA

CITY           SKY/WX    TMP DP  RH WIND       PRES   REMARKS
BOZEMAN        CLOUDY    22  16  78 SW3       29.71R
DILLON         CLOUDY   N/A N/A N/A S12       29.69R
W YELLOWSTONE  CLOUDY    23  23 100 SW12      29.71R WCI  12
ENNIS          CLOUDY    30  21  69 S13       29.74R WCI  20
TWIN BRIDGES     N/A     19  10  68 E2        29.73R
$$

MTZ009-010-012-014-046-048-049-054-220500-
EAST SLOPES AND CENTRAL MONTANA

CITY           SKY/WX    TMP DP  RH WIND       PRES   REMARKS
CUT BANK       CLEAR     22  17  81 W5        29.65R
GREAT FALLS    CLEAR     20  17  88 SW9       29.66R WCI   9
MALMSTROM AFB  CLEAR     24  21  87 SW12      29.67R WCI  13
HELENA         CLOUDY    13   9  84 CALM      29.72R
AUGUSTA        MOCLDY    21  18  88 CALM      29.64R
BOWMANS CRNR     N/A     23  17  76 SW8       29.64R WCI  14
CHOTEAU          N/A     25  21  86 W5        29.68R
CONRAD           N/A     18  16  92 W7        29.70R WCI   9
POWER          MOCLDY    14  13  96 W6        29.65R WCI   5
RAYNESFORD       N/A     21  17  83 CALM      29.66R
ULM              N/A     21  18  88 MISG      29.67R
$$

MTZ011-013-016-021-045-047-050-051-220500-
NORTH CENTRAL MONTANA

CITY           SKY/WX    TMP DP  RH WIND       PRES   REMARKS
HAVRE          CLEAR     22  21  96 SW14      29.65R WCI   9
LEWISTOWN      CLOUDY    24  17  74 SW7       29.64R WCI  16
CHINOOK          N/A     25  23  93 W8        29.64R WCI  16
DENTON         MOCLDY    22  18  86 SE8G16    29.61R WCI  12
FORT BENTON      N/A     27  21  80 MISG      29.68R
GEYSER           N/A     25  19  78 SW10      29.63R WCI  15
GRASS RANGE    CLOUDY    29  22  76 W17       29.60R WCI  16
JUDITH GAP       N/A     24  18  75 CALM      29.62R
ROY              N/A     28  21  75 MISG      29.62R
STANFORD         N/A     24  18  79 CALM      29.63R
WINIFRED         N/A     29  23  76 W9        29.63R WCI  21
$$

MTZ017>020-022>027-061-062-220500-
NORTHEAST MONTANA

CITY           SKY/WX    TMP DP  RH WIND       PRES   REMARKS
GLASGOW        CLEAR     18  14  84 W6        29.60R FOG     WCI  10
JORDAN           N/A     24  21  88 W9        29.61R WCI  14
SIDNEY         MOCLDY    21  20  96 W6        29.61R WCI  13
WOLF POINT     CLOUDY    12   8  84 SW3       29.62R
PLENTYWOOD       N/A     28  28 100 NW16      29.56R WCI  17
POPLAR           N/A     18  16  93 S5        29.61R
SCOBEY           N/A     29  23  78 NW13      29.58R WCI  19
$$

MTZ028>42-056>058-220500-
SOUTHCENTRAL AND SOUTHEAST MONTANA

CITY           SKY/WX    TMP DP  RH WIND       PRES   REMARKS
BAKER          CLOUDY    20  17  88 NW3       29.60R
BILLINGS       CLOUDY    30  20  66 SW14      29.64R WCI  19
LIVINGSTON     CLOUDY    29  18  63 W5        29.66R
MILES CITY     CLEAR     20  16  84 SW3       29.64R FOG
BIG TIMBER     MOCLDY    32  19  59 SW15      29.67R WCI  22
EKALAKA          N/A     27  20  75 CALM      29.62R
FORSYTH          N/A     23  21  93 W3        29.63R
HARLOWTON        N/A     27  17  67 W12       29.64R WCI  16
LAUREL           N/A     27  17  65 SW7       29.66R WCI  20
$$

REGIONAL REPORTS...DAKOTAS

CITY           SKY/WX    TMP DP  RH WIND       PRES   REMARKS
WILLISTON      CLOUDY    30  28  92 W8        29.58R WCI  22
MINOT          CLOUDY    29  26  89 SW7       29.53R WCI  22
DICKINSON      CLEAR     22  17  81 W14       29.54R WCI   9
BEACH            N/A     23  21  93 W14       29.61R WCI  11
CROSBY         CLOUDY    30  30 100 NW10      29.56R FOG     WCI  21
TIOGA          CLOUDY    28  28 100 NW14      29.55R FOG     WCI  17
WATFORD CITY   CLOUDY    23  23 100 SW8       29.58R WCI  14
BISMARCK       CLEAR     21  18  88 CALM      29.57R
GRAND FORKS    FOG       35  33  92 E3        29.55R VSB 3/4
FARGO          FOG       36  34  92 CALM      29.55R VSB 1/4
BUFFALO SD       N/A     25  22  88 W8        29.52R WCI  16
RAPID CITY     CLOUDY    29  23  78 NW9       29.60R WCI  20
$$

REGIONAL REPORTS...WYOMING/IDAHO/WASHINGTON

CITY           SKY/WX    TMP DP  RH WIND       PRES   REMARKS
GILLETTE       CLOUDY    29  25  85 W3        29.61R
SHERIDAN       CLOUDY    19  14  81 S6        29.63R WCI  11
BUFFALO WY     CLOUDY    28  19  69 W5        29.62R
CODY           CLOUDY    24  19  81 S5        29.66R
YELLOWSTONE LA   N/A     19  16  88 SW3       29.71R
IDAHO FALLS    CLOUDY    28  25  88 S13       29.80R WCI  17
SALMON         CLOUDY    12   9  85 CALM      29.78R
BOISE          MOCLDY    36  31  82 SE13      29.77S WCI  27
SPOKANE        LGT RAIN  35  31  85 E3        29.66R
$$

REGIONAL REPORTS...ALBERTA

CITY           SKY/WX    TMP DP  RH WIND       PRES   REMARKS
EDMONTON       CLOUDY    21  18  86 N7        29.79R WCI  13
CALGARY        CLOUDY    27  23  86 NW8       29.69R WCI  18
LETHBRIDGE     PTCLDY    21  19  93 W7        29.68R WCI  13
MEDICINE HAT   CLOUDY    28  28 100 SW6       29.67R FOG     WCI  22
WATERTON GATE    N/A     25  19  80 SW2         N/A
CARDSTON         N/A     25  18  74 W3          N/A
MILK RIVER       N/A     23  21  93 W8          N/A  WCI  14
$$

REGIONAL REPORTS...SASKATCHEWAN

CITY           SKY/WX    TMP DP  RH WIND       PRES   REMARKS
SWIFT CURRENT  FRZ RAIN  27  27 100 NW15      29.56R VSB 1/2 WCI  15
REGINA         FLURRIES  27  25  93 NW7       29.54R WCI  19
SASKATOON      FLURRIES  27  25  93 N8        29.60R WCI  18
CYPRESS HILLS    N/A     21  19  93 NW7         N/A  WCI  13
VAL MARIE        N/A     27  25  93 N12         N/A  WCI  16
ROCKGLEN         N/A     25  25 100 NW12        N/A  WCI  14
ASSINIBOIA       N/A     21  19  93 N10         N/A  WCI  10
$$




USA.gov is the U.S. government's official web portal to all federal, state and local government web resources and services.